Location: Asis
(14.1331°N, 120.9056°E)
Time: 09:20:59
(UTC+00:00)

Hubble Space Telescope - Pass Details

Date: 15 January 2026
Orbit: 478 x 480 km, 28.5° (Epoch: 8 February)

Event Time Altitude Azimuth Distance (km) Brightness Sun altitude
Rises 11:41:34 0° 220° (SW) 2,515 5.0 -27.1°
Reaches altitude 10° 11:44:02 10° 206° (SSW) 1,638 3.7 -27.6°
Enters shadow 11:44:58 15° 196° (SSW) 1,354 3.1 -27.9°
